CAPE
0 0 0 0 0 0 0 0 0 0 0 0 0 0 0 0 0 0 3 10 4 0
0 0 0 0 0 0 0 0 0 0 0 0 0 0 0 0 0 0 0 0 5 3
0 0 0 0 0 0 0 0 0 0 0 0 0 0 0 0 0 0 0 0 0 0
0 0 0 0 0 0 0 0 0 0 0 0 0 1 1 2 1 0 0 0 0 0
0 0 0 0 0 0 0 0 0 0 0 0 1 2 0 0 1 0 0 0 0 0
0 0 0 0 0 0 0 0 0 1 0 2 2 0 0 0 1 1 1 1 0 0
0 0 0 0 0 9 10 9 8 3 8 2 0 0 0 0 1 1 1 1 0 0
0 0 0 0 0 0 1 5 5 6 4 0 1 0 0 1 1 1 2 1 0 0
0 0 0 0 0 0 0 1 1 0 1 1 1 1 1 0 0 0 4 3 1 0
0 0 0 0 0 0 0 0 0 0 0 0 0 0 1 1 0 0 0 0 1 1
0 0 0 0 0 0 0 0 0 0 0 0 0 0 1 1 0 0 0 0 0 0
0 0 0 0 0 0 0 0 0 0 0 0 0 0 0 1 0 0 0 0 0 0
0 0 0 0 0 0 0 0 0 0 0 0 0 0 0 1 0 0 0 0 0 0
0 0 0 0 0 0 0 0 0 0 0 0 0 0 1 0 0 0 0 0 0 0
CIN
0 0 0 0 0 0 0 0 0 0 0 0 0 0 0 0 0 0 -74 -69 -81 -43
0 0 0 0 0 0 0 0 0 0 0 0 0 0 0 0 0 0 0 0 -120 -119
0 0 0 0 0 0 0 0 0 0 0 0 0 0 0 0 0 0 0 0 0 0
0 0 0 0 0 0 0 0 0 0 0 0 0 0 0 0 0 0 0 0 -13 -71
0 0 0 0 0 0 0 0 0 0 0 0 0 -37 0 0 0 0 0 0 0 0
0 0 0 0 0 0 -5 -9 0 -16 0 -43 -36 0 -11 0 0 0 0 0 0 0
0 0 0 0 -5 -10 -19 -29 -33 -38 -39 -53 0 0 0 0 0 0 0 0 0 0
0 0 0 0 0 0 -6 -29 -35 -39 -52 0 0 0 0 0 0 0 0 0 0 0
0 0 0 0 0 0 0 0 0 0 0 0 0 0 0 0 0 0 0 0 0 0
0 0 0 0 0 0 0 0 0 0 0 0 0 0 0 0 0 0 0 0 0 0
0 0 0 0 0 0 0 0 0 0 0 0 0 0 0 0 0 0 0 0 0 0
0 0 0 0 0 0 0 0 0 0 0 0 0 0 0 0 0 0 0 0 0 0
0 0 0 0 0 0 0 0 0 0 0 0 0 0 0 0 0 0 0 0 0 0
0 0 0 0 0 0 0 0 0 0 0 0 0 0 0 0 0 0 0 0 0 0
Wind_Speed
20 20 20 20 21 21 21 21 22 21 22 22 21 21 21 22 21 21 20 20 20 20
20 20 21 22 24 23 23 24 24 23 22 23 23 22 23 23 23 22 22 22 21 21
20 20 21 22 23 25 25 25 25 24 24 25 24 24 25 25 25 25 24 24 24 24
20 23 24 25 25 26 28 27 27 26 26 26 27 26 27 27 27 28 28 27 26 27
24 26 26 27 27 28 29 28 28 28 29 29 29 28 28 30 29 30 30 30 30 28
27 27 28 28 28 28 29 29 29 29 30 30 29 28 28 29 31 31 30 30 30 30
29 29 30 31 31 29 27 27 28 27 28 29 29 30 30 30 32 30 31 29 29 28
25 26 29 31 30 29 27 26 26 26 27 28 29 30 30 31 31 30 31 29 29 29
24 24 25 24 25 25 24 24 25 27 30 31 30 29 28 28 29 30 30 31 29 28
24 24 23 23 23 24 24 25 26 27 27 28 28 28 28 27 28 29 29 28 28 27
24 23 23 23 24 24 24 26 27 28 28 28 27 27 26 26 26 28 28 27 26 24
23 24 23 24 25 24 25 25 25 26 27 27 29 28 27 26 26 27 27 25 24 21
19 20 21 21 22 22 23 24 25 26 27 27 27 26 24 21 21 23 23 24 23 20
20 20 20 20 21 22 23 24 25 25 25 24 24 24 20 18 20 20 20 19 18 15
Wind_Direction
250 255 257 259 262 266 266 269 275 272 270 273 275 275 279 281 282 283 284 284 288 289
247 249 256 262 271 270 273 277 277 274 272 273 273 274 276 277 277 279 280 284 281 284
251 252 255 266 266 272 273 276 277 276 275 277 276 276 276 277 278 278 280 281 284 285
260 265 269 268 269 269 275 276 276 277 277 277 278 279 279 279 281 280 283 284 282 280
275 278 277 276 274 276 275 277 276 279 280 281 282 283 281 282 283 282 283 282 283 282
281 283 283 284 284 281 280 279 281 281 280 281 282 282 282 282 284 284 284 284 281 278
287 287 288 289 289 289 286 284 284 283 283 284 285 285 286 285 285 287 286 285 284 280
300 297 295 293 293 293 291 290 290 289 289 290 289 290 290 290 287 285 288 288 289 288
305 307 305 307 306 304 302 302 302 300 301 299 299 301 298 296 294 293 291 292 294 295
303 306 308 310 309 308 307 307 306 307 307 305 305 306 305 302 300 298 297 296 296 295
303 304 308 309 309 310 310 310 309 308 309 309 310 311 309 307 305 304 303 301 300 296
305 305 308 310 312 314 315 316 316 316 316 314 313 313 311 310 309 309 309 308 306 302
316 315 316 318 320 322 322 321 320 320 320 320 319 320 320 318 319 316 316 317 317 313
326 325 324 325 325 325 325 325 324 324 326 327 328 327 326 324 322 320 320 318 318 314